TimeCDT,TemperatureF,Dew PointF,Humidity,Sea Level PressureIn,VisibilityMPH,Wind Direction,Wind SpeedMPH,Gust SpeedMPH,PrecipitationIn,Events,Conditions,WindDirDegrees,DateUTC
12:15 AM,50.9,50.2,97,29.97,10.0,NE,5.8,-,N/A,,Overcast,50,2013-10-04 05:15:00
12:35 AM,50.9,50.4,98,29.97,10.0,NE,4.6,-,N/A,,Light Drizzle,40,2013-10-04 05:35:00
12:55 AM,50.7,50.4,99,29.98,10.0,NNE,5.8,-,N/A,Rain,Light Rain,20,2013-10-04 05:55:00
1:15 AM,50.5,50.4,99,29.98,7.0,NNE,5.8,-,0.03,Rain,Heavy Rain,30,2013-10-04 06:15:00
1:35 AM,50.5,50.5,100,29.99,10.0,NE,3.5,-,0.05,Rain,Light Rain,50,2013-10-04 06:35:00
1:55 AM,50.9,50.9,100,30.00,10.0,NNE,5.8,-,0.05,,Overcast,30,2013-10-04 06:55:00
2:15 AM,50.9,50.9,100,30.00,10.0,NNE,5.8,-,N/A,,Overcast,30,2013-10-04 07:15:00
2:35 AM,51.1,50.9,99,30.00,10.0,NE,8.1,-,N/A,,Overcast,50,2013-10-04 07:35:00
2:55 AM,51.1,50.9,99,30.01,10.0,ENE,5.8,-,N/A,Rain,Light Rain,60,2013-10-04 07:55:00
3:15 AM,51.1,50.7,99,30.01,10.0,NE,5.8,-,0.01,,Light Drizzle,40,2013-10-04 08:15:00
3:35 AM,50.9,50.9,100,30.00,10.0,NE,6.9,-,0.01,Rain,Light Rain,40,2013-10-04 08:35:00
3:55 AM,50.9,50.5,99,30.01,10.0,NE,5.8,-,0.01,Rain,Light Rain,50,2013-10-04 08:55:00
4:15 AM,50.9,50.5,99,30.02,10.0,NE,6.9,-,N/A,Rain,Rain,40,2013-10-04 09:15:00
4:35 AM,50.5,50.5,100,30.02,10.0,NE,6.9,-,N/A,,Overcast,40,2013-10-04 09:35:00
4:55 AM,50.5,50.4,99,30.01,10.0,NE,6.9,-,N/A,,Overcast,50,2013-10-04 09:55:00
5:15 AM,50.9,50.5,99,30.02,10.0,ENE,6.9,-,N/A,,Overcast,70,2013-10-04 10:15:00
5:35 AM,51.1,50.9,99,30.03,10.0,ENE,8.1,-,N/A,,Overcast,60,2013-10-04 10:35:00
5:55 AM,51.1,50.5,98,30.02,10.0,ENE,9.2,-,N/A,,Overcast,70,2013-10-04 10:55:00
6:15 AM,51.1,50.4,97,30.03,10.0,ENE,9.2,-,N/A,,Overcast,70,2013-10-04 11:15:00
6:35 AM,51.1,50.0,96,30.03,7.0,ENE,6.9,-,N/A,,Overcast,70,2013-10-04 11:35:00
6:55 AM,50.9,50.0,97,30.03,10.0,ENE,6.9,-,N/A,,Overcast,70,2013-10-04 11:55:00
7:35 AM,50.9,50.0,97,30.04,10.0,NE,8.1,-,N/A,,Light Drizzle,50,2013-10-04 12:35:00
7:55 AM,51.1,50.0,96,30.05,10.0,ENE,6.9,-,N/A,,Overcast,60,2013-10-04 12:55:00
8:15 AM,51.8,50.2,94,30.05,10.0,East,8.1,-,N/A,,Overcast,80,2013-10-04 13:15:00
8:35 AM,51.8,50.0,94,30.05,7.0,ENE,8.1,-,N/A,,Overcast,70,2013-10-04 13:35:00
8:55 AM,52.3,50.2,92,30.06,10.0,NE,8.1,-,N/A,,Overcast,50,2013-10-04 13:55:00
9:15 AM,52.7,50.0,91,30.06,10.0,NE,11.5,-,N/A,,Overcast,50,2013-10-04 14:15:00
9:35 AM,53.1,49.5,88,30.06,10.0,NE,8.1,16.1,N/A,,Overcast,50,2013-10-04 14:35:00
9:55 AM,53.4,49.8,88,30.07,10.0,NE,8.1,-,N/A,,Overcast,50,2013-10-04 14:55:00
10:15 AM,54.0,49.8,86,30.07,10.0,ENE,9.2,-,N/A,,Overcast,60,2013-10-04 15:15:00
10:35 AM,54.5,49.5,83,30.06,10.0,ENE,11.5,16.1,N/A,,Overcast,60,2013-10-04 15:35:00
10:55 AM,55.0,49.5,81,30.06,10.0,ENE,9.2,-,N/A,,Overcast,60,2013-10-04 15:55:00
11:15 AM,54.7,49.6,83,30.07,5.0,ENE,12.7,-,N/A,,Haze,70,2013-10-04 16:15:00
11:35 AM,54.7,49.8,84,30.07,5.0,ENE,8.1,-,N/A,,Haze,70,2013-10-04 16:35:00
11:55 AM,55.0,49.8,83,30.07,7.0,ENE,6.9,-,N/A,,Overcast,70,2013-10-04 16:55:00
12:15 PM,55.4,50.0,82,30.08,7.0,NE,9.2,-,N/A,,Overcast,50,2013-10-04 17:15:00
12:35 PM,55.6,50.4,83,30.08,7.0,East,9.2,-,N/A,,Overcast,80,2013-10-04 17:35:00
12:55 PM,56.3,50.2,80,30.08,5.0,East,8.1,-,N/A,,Haze,80,2013-10-04 17:55:00
1:15 PM,56.5,49.8,78,30.07,2.5,ENE,9.2,-,N/A,,Haze,70,2013-10-04 18:15:00
1:35 PM,56.8,49.8,77,30.07,3.0,East,13.8,-,N/A,,Haze,80,2013-10-04 18:35:00
1:55 PM,56.7,50.2,79,30.07,3.0,East,9.2,-,N/A,,Haze,80,2013-10-04 18:55:00
2:15 PM,56.7,48.7,75,30.07,2.5,East,10.4,-,N/A,,Haze,80,2013-10-04 19:15:00
2:35 PM,57.2,49.5,75,30.06,4.0,East,8.1,-,N/A,,Haze,80,2013-10-04 19:35:00
2:55 PM,57.4,48.6,72,30.06,3.0,ENE,13.8,-,N/A,,Haze,70,2013-10-04 19:55:00
3:15 PM,58.1,48.4,70,30.05,4.0,East,10.4,18.4,N/A,,Haze,90,2013-10-04 20:15:00
3:35 PM,57.4,48.2,71,30.05,3.0,ENE,11.5,-,N/A,,Haze,70,2013-10-04 20:35:00
3:55 PM,57.0,48.2,72,30.05,10.0,East,10.4,-,N/A,,Overcast,90,2013-10-04 20:55:00
4:15 PM,56.7,48.2,73,30.05,10.0,East,9.2,-,N/A,,Overcast,90,2013-10-04 21:15:00
4:35 PM,55.9,48.4,76,30.06,10.0,East,6.9,-,N/A,Rain,Light Rain,90,2013-10-04 21:35:00
4:55 PM,54.1,52.0,92,30.07,4.0,East,6.9,-,0.02,Rain,Rain,100,2013-10-04 21:55:00
5:15 PM,53.6,52.7,97,30.08,4.0,East,4.6,-,0.04,Rain,Rain,90,2013-10-04 22:15:00
5:35 PM,53.1,52.7,99,30.08,4.0,East,6.9,-,0.06,Rain,Rain,90,2013-10-04 22:35:00
5:55 PM,53.1,52.9,99,30.09,5.0,ENE,5.8,-,0.07,Rain,Rain,70,2013-10-04 22:55:00
6:15 PM,52.9,52.7,99,30.09,7.0,NE,4.6,-,N/A,Rain,Light Rain,50,2013-10-04 23:15:00
6:35 PM,52.9,52.7,99,30.09,7.0,ENE,8.1,-,0.01,Rain,Rain,70,2013-10-04 23:35:00
6:55 PM,52.7,52.2,98,30.08,7.0,ENE,8.1,-,0.02,Rain,Light Rain,70,2013-10-04 23:55:00
7:15 PM,52.3,51.8,98,30.07,10.0,ENE,9.2,-,0.01,Rain,Light Rain,70,2013-10-05 00:15:00
7:35 PM,52.2,51.6,98,30.08,10.0,East,11.5,-,0.01,,Light Drizzle,90,2013-10-05 00:35:00
7:55 PM,52.2,51.4,97,30.08,10.0,ENE,6.9,-,0.01,,Overcast,70,2013-10-05 00:55:00
8:15 PM,51.8,51.1,97,30.08,10.0,ENE,10.4,-,N/A,,Overcast,70,2013-10-05 01:15:00
8:35 PM,51.8,50.9,97,30.09,10.0,East,11.5,-,N/A,,Overcast,80,2013-10-05 01:35:00
8:55 PM,51.4,50.9,98,30.09,10.0,ENE,11.5,-,N/A,,Overcast,70,2013-10-05 01:55:00
9:15 PM,51.3,50.5,97,30.08,10.0,ENE,9.2,-,N/A,,Overcast,70,2013-10-05 02:15:00
9:35 PM,51.1,50.4,97,30.08,10.0,East,6.9,-,N/A,,Overcast,80,2013-10-05 02:35:00
9:55 PM,50.9,50.2,97,30.07,10.0,East,9.2,-,N/A,,Overcast,80,2013-10-05 02:55:00
10:15 PM,50.9,50.0,97,30.08,10.0,East,8.1,16.1,N/A,,Overcast,80,2013-10-05 03:15:00
10:35 PM,50.9,50.0,97,30.09,10.0,ENE,6.9,-,N/A,,Overcast,70,2013-10-05 03:35:00
10:55 PM,50.9,49.8,96,30.08,10.0,East,10.4,-,N/A,,Overcast,80,2013-10-05 03:55:00
11:15 PM,50.9,50.0,97,30.09,10.0,East,8.1,17.3,N/A,,Overcast,90,2013-10-05 04:15:00
11:35 PM,50.9,50.0,97,30.09,10.0,East,6.9,-,N/A,Rain,Light Rain,80,2013-10-05 04:35:00
11:55 PM,51.1,50.0,96,30.10,10.0,ESE,8.1,-,N/A,Rain,Light Rain,110,2013-10-05 04:55:00